ANDESITE

Satellite information

Favourite Embed

Satellite Type and Status

PAYLOADIN ORBIT

Key statistics

Satellite ANDESITE at a glance.

Uptime

1851

Days in orbit

Revolutions

≈ 15.0

Per day

Orbit

SSO

Sun Synchronous Orbit

Inclination

97.8

Latest

Satellite identification and parameters

Extended collection of information and parameters for ANDESITE.

Object identification

Identified? True

Debris? False

Object name: ANDESITE

International designator: 2020-037D

Object number (NORAD): 45726

Object ID (CCSDS): 45726

Country: UNITED STATES OF AMERICA (US)

Current information (Y/N): Y

RCS size: SMALL

Orbital parameters

Period: 95.809 minutes

Inclination: 97.7906 deg

SMA: 6935.819 km

Apoapsis: 562.799 km

Periapsis: 552.57 km

RAAN: 12.9012 deg

Eccentricy: 0.0007374

Argument of periapsis: 254.0079 deg

Mean anomaly: 106.0334 deg

Mean motion: 15.02990121 rev/day

Mean motion (dot): 0.00001963 rev/day2

B* drag term: 0.00015054 1/REarth

Two-line elements (TLE)

Creation date: July 6, 2025, 6:05 p.m.

Reference frame: TEME

Reference center: EARTH

Epoch: July 6, 2025, 1:37 p.m. UTC

TLE line 0: 0 ANDESITE

TLE line 1: 1 45726U 20037D 25187.56739438 .00001963 00000-0 15054-3 0 9991

TLE line 2: 2 45726 97.7906 12.9012 0007374 254.0079 106.0334 15.02990121273703

Live tracking on map

Real-time ground track for satellite ANDESITE.

In-orbit conjunctions

There are no conjunctions computed for ANDESITE, at the moment. Check back to stay up to date, as we update our databases every day.

Go to all conjunctions

Associated space launch

This rideshare mission carries small satellites for NASA, University of New South Wales and for NRO. The mission has been named "Don't Stop Me Now" in recognition of Rocket Lab board member and avid Queen fan Scott Smith, who recently passed away.

ANDESITE was lifted into orbit during the mission ‘Electron | Don't Stop Me Now (Rideshare)’, on board a Electron space rocket.

The launch took place on June 13, 2020, 5:12 a.m. from Rocket Lab Launch Complex 1A.

For more information about the launch, click the button.

Launch to space Electron | Don't Stop Me Now (Rideshare)
Electron | Don't Stop Me Now (Rideshare)

Agency: N/A

Status: Launch Successful

Launch date: June 13, 2020, 5:12 a.m. UTC

Rocket: Electron

Launch pad: Rocket Lab Launch Complex 1A

Location: Rocket Lab Launch Complex 1, Mahia Peninsula, New Zealand

...

Latest news about this satellite

News about space launch
Rocket Lab launches 12th Electron, continues work on future plans

News about space launch
University-built CubeSat launched with swarm of auroral science nodes

News about space launch
Rocket Lab launches NRO, university payloads


Newsletter sign-up

Weekly statistics, charts and insights to help you stay on top of the space industry.